Terminal Aerodrome Forecast
Issued by NWS Wilmington, OH

Current Version | Previous Version | Text Only | Print | Product List | Glossary Off
Versions: 1 2 3 4 5 6 7 8 9 10 11 12 13 14 15 16 17 18 19 20 21 22 23 24

205
FTUS41 KILN 131740
TAFDAY
TAF
KDAY 131740Z 1318/1418 19014G22KT P6SM BKN070
     FM132200 22019G30KT P6SM VCSH OVC040
     FM140200 28016G26KT P6SM OVC025
     FM140700 33012KT P6SM OVC015
     FM141500 35007KT P6SM SCT015=

USA.gov is the U.S. government's official web portal to all federal, state and local government web resources and services.